Regional Weather Roundup
Issued by NWS

Home | Current Version | Previous Version | Text Only | Print | Product List | Glossary On
Versions: 1 2 3 4 5 6 7 8 9 10 11 12 13 14 15 16 17 18 19 20 21 22 23 24 25 26 27 28 29 30 31 32 33 34 35 36 37 38 39 40 41 42 43 44 45 46 47 48 49 50
000
ASUS43 KDMX 170306
RWRIA

WEATHER ROUNDUP FOR IOWA
NATIONAL WEATHER SERVICE DES MOINES IA
900 PM CST SAT DEC 16 2017

NOTE: "FAIR" INDICATES FEW OR NO CLOUDS BELOW 12,000 FEET WITH NO
SIGNIFICANT WEATHER AND/OR OBSTRUCTIONS TO VISIBILITY.

* - THESE STATIONS ARE NOT NWS STATIONS...THUS NOT UNDER NWS
QUALITY CONTROL.  THEY ALSO DO NOT REPORT WEATHER SUCH
AS PRECIPITATION OR FOG.

IAZ001>003-012>014-020>022-031>034-043>046-170400-
   NORTHWEST IOWA

CITY           SKY/WX    TMP DP  RH WIND       PRES   REMARKS
CARROLL *      PTCLDY    34  27  75 N10       29.97F WCI  26
CHEROKEE *     PTCLDY    32  28  86 NE5       30.03R WCI  27
LE MARS *      CLOUDY    32  28  86 N7        30.04R WCI  26
ORANGE CITY *  PTCLDY    34  32  93 NE9       30.03R WCI  26
SHELDON *      CLOUDY    28  27  93 N8        30.02S WCI  20
SIOUX CITY     CLOUDY    37  30  75 NE10      30.01S WCI  30
SPENCER        PTCLDY    27  24  89 NE9       30.04R WCI  18
STORM LAKE *   PTCLDY    32  28  86 NE13      30.01S WCI  22
$$

IAZ055>058-069>071-079>083-090>094-170400-
   SOUTHWEST IOWA

CITY           SKY/WX    TMP DP  RH WIND       PRES   REMARKS
ATLANTIC *     CLOUDY    28  23  80 NE10      29.96S WCI  19
AUDUBON *      CLEAR     36  28  75 NE5       29.98R WCI  32
CLARINDA *       N/A     30  23  74 NE3       29.95F
COUNCIL BLFS * CLOUDY    34  27  75 N10       29.94F WCI  26
CRESTON *      CLOUDY    36  23  60 CALM      29.95F
HARLAN  *      CLEAR     36  27  69 N7        30.00R WCI  30
LAMONI         CLOUDY    41  26  55 NE5       29.93F
RED OAK *      CLOUDY    30  23  74 NE3       29.93F
SHENANDOAH *   CLOUDY    32  23  69 NE8       29.93F WCI  25
$$

IAZ047>049-059>061-072>074-084-170400-
   CENTRAL IOWA

CITY           SKY/WX    TMP DP  RH WIND       PRES   REMARKS
AMES           CLOUDY    32  27  81 N7        29.98S WCI  26
ANKENY *       CLEAR     36  25  64 N7        29.98F WCI  30
BOONE *        CLEAR     34  27  75 N12       29.97F WCI  25
CHARITON *     CLOUDY    39  25  56 S5        29.96F
DES MOINES     CLEAR     37  25  61 CALM      29.97S
GRINNELL*      CLOUDY    34  24  68 CALM      29.99F
KNOXVILLE *    CLOUDY    39  25  56 CALM      29.95F
MARSHALLTOWN   CLOUDY    28  22  78 N7        29.98R WCI  21
NEWTON *       CLOUDY    36  23  60 NE6       29.97F WCI  31
PELLA *        CLOUDY    37  26  63 CALM      29.98F
PERRY *          N/A     35  25  66 N7        29.98S WCI  29
$$

IAZ004>006-015-016-023>025-035-036-170400-
   NORTH CENTRAL IOWA

CITY           SKY/WX    TMP DP  RH WIND       PRES   REMARKS
ALGONA *       CLEAR     28  28 100 N9        30.03S WCI  20
CLARION *      PTCLDY    28  27  93 N8        30.02R WCI  20
ESTHERVILLE    CLOUDY    25  25 100 N8        30.04R FOG     WCI  16
FORT DODGE *   PTCLDY    32  27  81 N6        30.02R WCI  26
MASON CITY     CLEAR     26  22  84 N10       30.04R WCI  16
FOREST CITY *    N/A     30  28  93 NE8       30.02S WCI  23
WEBSTER CITY * PTCLDY    30  23  74 N8        29.98S WCI  23
IOWA FALLS *     N/A     34  26  74 NE5       30.01R WCI  29
$$

IAZ007>011-017>019-026>030-037>042-050>054-066-170400-
   NORTHEAST IOWA

CITY           SKY/WX    TMP DP  RH WIND       PRES   REMARKS
CEDAR RAPIDS   CLOUDY    31  24  75 E7        29.99R WCI  24
CHARLES CITY * CLEAR     30  28  93 NE9       30.03R WCI  22
CLINTON *      CLOUDY    28  24  85 E9        30.03R WCI  19
DECORAH *      PTCLDY    28  25  86 NE6       30.05R WCI  22
DUBUQUE        CLEAR     31  25  78 NE12      30.02R WCI  22
MONTICELLO *   CLEAR     28  21  74 CALM      30.02R
OELWEIN *      CLEAR     30  28  93 NE9       30.02R WCI  22
WATERLOO       CLEAR     29  22  75 E3        30.02R
$$

IAZ064-065-067-068-078-170400-
   EAST CENTRAL IOWA

CITY           SKY/WX    TMP DP  RH WIND       PRES   REMARKS
DAVENPORT      CLOUDY    29  21  72 E8        30.04R WCI  21
IOWA CITY      CLOUDY    27  21  78 CALM      30.03R
MT. PLEASANT * CLOUDY    36  24  62 CALM      30.00R
MUSCATINE *    CLOUDY    27  19  74 N3        30.01R
QUAD CITIES    CLOUDY    25  20  81 CALM      30.01R
$$

IAZ062-063-075>077-085>089-095>099-170400-
   SOUTHEAST IOWA

CITY           SKY/WX    TMP DP  RH WIND       PRES   REMARKS
BURLINGTON     CLOUDY    35  26  69 CALM      30.00R
FAIRFIELD *    CLOUDY    32  23  69 CALM      29.98S
FORT MADISON * CLOUDY    45  28  53 CALM      30.00R
KEOKUK *       CLOUDY    41  27  56 CALM      29.99S
OSKALOOSA *      N/A     34  23  64 CALM      29.98F
OTTUMWA        CLOUDY    33  23  66 CALM      29.97S
WASHINGTON *   CLOUDY    34  25  69 CALM      30.01R
$$

ABBREVIATIONS USED IN REMARKS
   TC - TEMPERATURES IN CELSIUS
  WCI - WIND CHILL INDEX
   HX - HEAT INDEX
  VSB - VISIBILITY
$$




USA.gov is the U.S. government's official web portal to all federal, state and local government web resources and services.